Location: Gro�wechsungen
(51.4926°N, 10.6901°E)
Time: 11:49:38
(UTC+00:00)

OBJECT-B - Pass Details

Date: 18 September 2020
Orbit: 421 x 433 km, 97.0° (Epoch: 09 October)

Event Time Altitude Azimuth Distance (km) Brightness Sun altitude
Exits shadow 19:01:25 35° 132° (SE) 701 1.3 -15.6°
Maximum altitude 19:02:28 55° 73° (ENE) 518 0.9 -15.7°
Drops below altitude 10° 19:05:40 10° 355° (N) 1,525 4.0 -16.2°
Sets 19:07:43 0° 351° (N) 2,398 5.1 -16.5°
